TOM1LJ EGKK-LEIB

Flight info

Callsign TOM1LJ
Flight time N/A
Altitude 35000
Route SFD Y47 DRAKE L151 SITET UN859 SOPIL DCT BALAN DCT EVPOK DCT NARAK DCT GAI DCT LOMRA DCT ROCAN/N0415F310 DCT PUMAL DCT XEPLA DCT BCN DCT CORDA
Aircraft B38M/M-SDE1FGHILORVWXY/HB1

Departure

Time 2026-05-07 16:07
Airport London Gatwick Airport (EGKK)

Arrival

Time N/A
Airport Ibiza Airport (LEIB)
Time Latitude Longitude Altitude Speed Heading
2026-05-07 15:40 51.15829 -0.17559 233 ft 0 kts 347°
2026-05-07 15:58 51.15819 -0.17555 216 ft 4 kts 345°
2026-05-07 15:58 51.15794 -0.17541 216 ft 4 kts 333°
2026-05-07 15:58 51.15772 -0.17517 218 ft 4 kts 309°
2026-05-07 15:58 51.15764 -0.17485 215 ft 2 kts 259°
2026-05-07 15:59 51.15765 -0.17482 214 ft 1 kts 258°
2026-05-07 16:01 51.15764 -0.17485 206 ft 0 kts 258°
2026-05-07 16:01 51.15761 -0.17513 216 ft 8 kts 258°
2026-05-07 16:02 51.15746 -0.17615 214 ft 7 kts 259°
2026-05-07 16:02 51.15736 -0.17691 210 ft 9 kts 257°
2026-05-07 16:02 51.15716 -0.17823 214 ft 18 kts 258°
2026-05-07 16:02 51.15683 -0.18077 206 ft 27 kts 257°
2026-05-07 16:03 51.15652 -0.18299 208 ft 15 kts 256°
2026-05-07 16:03 51.15584 -0.18343 211 ft 11 kts 169°
2026-05-07 16:03 51.15486 -0.18310 208 ft 18 kts 168°
2026-05-07 16:03 51.15347 -0.18261 206 ft 22 kts 167°
2026-05-07 16:04 51.15208 -0.18228 206 ft 16 kts 205°
2026-05-07 16:04 51.15175 -0.18396 209 ft 20 kts 259°
2026-05-07 16:04 51.15141 -0.18656 209 ft 27 kts 260°
2026-05-07 16:04 51.15099 -0.18950 212 ft 28 kts 256°
2026-05-07 16:05 51.15057 -0.19258 215 ft 29 kts 257°
2026-05-07 16:05 51.15014 -0.19569 217 ft 28 kts 257°
2026-05-07 16:05 51.14973 -0.19869 207 ft 29 kts 256°
2026-05-07 16:05 51.14930 -0.20180 209 ft 27 kts 258°
2026-05-07 16:06 51.14890 -0.20467 207 ft 24 kts 258°
2026-05-07 16:06 51.14824 -0.20653 205 ft 19 kts 202°
2026-05-07 16:06 51.14707 -0.20716 210 ft 17 kts 171°
2026-05-07 16:06 51.14605 -0.20674 216 ft 11 kts 143°
2026-05-07 16:07 51.14605 -0.20553 210 ft 14 kts 76°
2026-05-07 16:07 51.14667 -0.20094 210 ft 86 kts 78°
2026-05-07 16:07 51.14858 -0.18708 227 ft 161 kts 76°
2026-05-07 16:07 51.15123 -0.16814 910 ft 183 kts 79°
2026-05-07 16:08 51.15431 -0.14777 1904 ft 199 kts 76°
2026-05-07 16:08 51.15780 -0.12478 2455 ft 231 kts 78°
2026-05-07 16:08 51.16084 -0.09835 3440 ft 238 kts 90°
2026-05-07 16:08 51.15660 -0.07252 4492 ft 251 kts 122°
2026-05-07 16:09 51.14362 -0.05294 5249 ft 266 kts 151°
2026-05-07 16:09 51.12614 -0.04460 5486 ft 268 kts 169°
2026-05-07 16:09 51.10772 -0.03913 5649 ft 270 kts 168°
2026-05-07 16:09 51.08922 -0.03225 5795 ft 270 kts 163°
2026-05-07 16:10 51.07146 -0.02396 5932 ft 271 kts 163°
2026-05-07 16:10 51.05360 -0.01569 5976 ft 271 kts 163°
2026-05-07 16:10 51.03526 -0.00723 5973 ft 271 kts 163°
2026-05-07 16:10 51.01720 0.00131 5935 ft 270 kts 163°
2026-05-07 16:11 50.99918 0.00984 5931 ft 270 kts 163°
2026-05-07 16:11 50.98111 0.01838 5966 ft 273 kts 163°
2026-05-07 16:11 50.96289 0.02701 6717 ft 272 kts 163°
2026-05-07 16:11 50.94497 0.03545 7952 ft 270 kts 164°
2026-05-07 16:12 50.92689 0.04398 9113 ft 272 kts 165°
2026-05-07 16:12 50.90854 0.05262 10139 ft 278 kts 165°
2026-05-07 16:12 50.88983 0.06143 11105 ft 282 kts 165°
2026-05-07 16:12 50.87086 0.07039 12059 ft 286 kts 164°
2026-05-07 16:13 50.85160 0.07943 12984 ft 291 kts 164°
2026-05-07 16:13 50.83206 0.08852 13883 ft 297 kts 166°
2026-05-07 16:13 50.81837 0.09240 14207 ft 307 kts 178°
2026-05-07 16:13 50.79657 0.08929 14567 ft 326 kts 188°
2026-05-07 16:14 50.77324 0.08597 14887 ft 346 kts 185°
2026-05-07 16:14 50.74871 0.08291 15299 ft 361 kts 185°
2026-05-07 16:14 50.72334 0.07969 15875 ft 369 kts 186°
2026-05-07 16:14 50.69767 0.07639 16637 ft 372 kts 186°
2026-05-07 16:15 50.67181 0.07305 17321 ft 377 kts 186°
2026-05-07 16:15 50.64552 0.06966 18023 ft 381 kts 186°
2026-05-07 16:15 50.61898 0.06624 18660 ft 385 kts 186°
2026-05-07 16:15 50.59217 0.06279 19267 ft 388 kts 186°
2026-05-07 16:16 50.56513 0.05931 19882 ft 391 kts 186°
2026-05-07 16:16 50.53785 0.05580 20481 ft 395 kts 186°
2026-05-07 16:16 50.51040 0.05249 21073 ft 398 kts 184°
2026-05-07 16:16 50.48258 0.05532 21661 ft 404 kts 173°
2026-05-07 16:17 50.45498 0.06463 22238 ft 408 kts 169°
2026-05-07 16:17 50.42724 0.07443 22798 ft 411 kts 169°